EN

Hourly Weather Rezekne

Today, 12 June, Saturday

Time Temperature Precipitation Wind Pressure Humidity
00:00 +14°C° 0 mm 1 mps 745 mmHg 81%
01:00 +14°C° 0 mm 1 mps 745 mmHg 84%
02:00 +14°C° 0 mm 1 mps 744 mmHg 84%
03:00 +14°C° 0 mm 1 mps 744 mmHg 84%
04:00 +14°C° 0 mm 1 mps 744 mmHg 84%
05:00 +15°C° 0 mm 1 mps 744 mmHg 84%
06:00 +16°C° 0 mm 1 mps 743 mmHg 79%
07:00 +18°C° 0 mm 2 mps 743 mmHg 73%
08:00 +19°C° 0 mm 2 mps 743 mmHg 68%
09:00 +20°C° 0.1 mm 2 mps 743 mmHg 65%
10:00 +21°C° 0.1 mm 3 mps 742 mmHg 61%
11:00 +22°C° 0.1 mm 3 mps 742 mmHg 58%
12:00 +22°C° 0.3 mm 3 mps 741 mmHg 59%
13:00 +22°C° 0.3 mm 4 mps 741 mmHg 60%
14:00 +22°C° 0.3 mm 4 mps 740 mmHg 61%
15:00 +22°C° 0.5 mm 4 mps 740 mmHg 67%
16:00 +21°C° 0.5 mm 4 mps 739 mmHg 73%
17:00 +20°C° 0.5 mm 3 mps 739 mmHg 79%
18:00 +19°C° 0.4 mm 3 mps 739 mmHg 83%
19:00 +18°C° 0.4 mm 3 mps 738 mmHg 87%
20:00 +17°C° 0.4 mm 2 mps 738 mmHg 92%
21:00 +16°C° 0.1 mm 2 mps 738 mmHg 94%
22:00 +15°C° 0.1 mm 2 mps 737 mmHg 95%
23:00 +15°C° 0.1 mm 2 mps 737 mmHg 97%

Tomorrow, 13 June, Sunday

Time Temperature Precipitation Wind Pressure Humidity
00:00 +13°C° 1 mm 3 mps 737 mmHg 98%
01:00 +12°C° 1 mm 3 mps 737 mmHg 98%
02:00 +12°C° 1 mm 3 mps 737 mmHg 98%
03:00 +13°C° 1.6 mm 2 mps 737 mmHg 98%
04:00 +13°C° 1.6 mm 2 mps 737 mmHg 98%
05:00 +13°C° 1.6 mm 1 mps 737 mmHg 98%
06:00 +13°C° 1.2 mm 1 mps 737 mmHg 98%
07:00 +13°C° 1.2 mm 2 mps 737 mmHg 98%
08:00 +13°C° 1.2 mm 2 mps 737 mmHg 97%
09:00 +13°C° 1.3 mm 2 mps 738 mmHg 96%
10:00 +13°C° 1.3 mm 2 mps 738 mmHg 96%
11:00 +14°C° 1.3 mm 2 mps 738 mmHg 95%
12:00 +14°C° 0.5 mm 2 mps 739 mmHg 94%
13:00 +14°C° 0.5 mm 1 mps 739 mmHg 92%
14:00 +14°C° 0.5 mm 1 mps 739 mmHg 91%
15:00 +15°C° 0.3 mm 2 mps 739 mmHg 91%
16:00 +15°C° 0.3 mm 2 mps 740 mmHg 90%
17:00 +14°C° 0.3 mm 3 mps 740 mmHg 90%
18:00 +14°C° 0.4 mm 3 mps 741 mmHg 91%
19:00 +13°C° 0.4 mm 4 mps 741 mmHg 92%
20:00 +13°C° 0.4 mm 4 mps 742 mmHg 93%
21:00 +13°C° 0.3 mm 4 mps 742 mmHg 94%
22:00 +12°C° 0.3 mm 4 mps 743 mmHg 94%
23:00 +12°C° 0.3 mm 4 mps 743 mmHg 94%

Day after tomorrow, 14 June, Monday

Time Temperature Precipitation Wind Pressure Humidity
00:00 +11°C° 0.2 mm 4 mps 744 mmHg 93%
01:00 +10°C° 0.2 mm 5 mps 744 mmHg 92%
02:00 +9°C° 0.2 mm 5 mps 744 mmHg 91%
03:00 +10°C° 0 mm 4 mps 745 mmHg 89%
04:00 +10°C° 0 mm 4 mps 745 mmHg 88%
05:00 +8°C° 0 mm 4 mps 746 mmHg 86%
06:00 +11°C° 0 mm 4 mps 746 mmHg 81%
07:00 +12°C° 0 mm 4 mps 747 mmHg 76%
08:00 +13°C° 0 mm 4 mps 748 mmHg 71%
09:00 +15°C° 0 mm 4 mps 748 mmHg 65%
10:00 +17°C° 0 mm 3 mps 748 mmHg 59%
11:00 +19°C° 0 mm 3 mps 748 mmHg 52%
12:00 +20°C° 0 mm 3 mps 748 mmHg 50%
13:00 +20°C° 0 mm 2 mps 749 mmHg 48%
14:00 +21°C° 0 mm 2 mps 749 mmHg 45%
15:00 +21°C° 0 mm 2 mps 749 mmHg 46%
16:00 +22°C° 0 mm 1 mps 749 mmHg 47%
17:00 +22°C° 0 mm 1 mps 748 mmHg 47%
18:00 +20°C° 0 mm 1 mps 748 mmHg 55%
19:00 +19°C° 0 mm 1 mps 748 mmHg 63%
20:00 +16°C° 0 mm 1 mps 748 mmHg 71%
21:00 +15°C° 0 mm 1 mps 748 mmHg 73%
22:00 +13°C° 0 mm 2 mps 748 mmHg 76%
23:00 +12°C° 0 mm 2 mps 748 mmHg 78%

15 June, Tuesday

Time Temperature Precipitation Wind Pressure Humidity
00:00 +10°C° 0 mm 2 mps 748 mmHg 80%
01:00 +10°C° 0 mm 2 mps 748 mmHg 82%
02:00 +9°C° 0 mm 2 mps 748 mmHg 84%
03:00 +9°C° 0 mm 2 mps 748 mmHg 84%
04:00 +10°C° 0 mm 2 mps 748 mmHg 84%
05:00 +10°C° 0 mm 3 mps 748 mmHg 84%
06:00 +12°C° 0 mm 3 mps 748 mmHg 79%
07:00 +14°C° 0 mm 4 mps 748 mmHg 74%
08:00 +17°C° 0 mm 4 mps 747 mmHg 69%
09:00 +17°C° 0 mm 5 mps 747 mmHg 67%
10:00 +19°C° 0 mm 5 mps 747 mmHg 65%
11:00 +21°C° 0 mm 5 mps 747 mmHg 62%
12:00 +20°C° 0.1 mm 5 mps 747 mmHg 67%
13:00 +20°C° 0.1 mm 5 mps 747 mmHg 71%
14:00 +20°C° 0.1 mm 5 mps 747 mmHg 76%
15:00 +20°C° 0.2 mm 5 mps 747 mmHg 78%
16:00 +19°C° 0.2 mm 5 mps 746 mmHg 81%
17:00 +19°C° 0.2 mm 4 mps 746 mmHg 84%
18:00 +18°C° 0.2 mm 4 mps 746 mmHg 86%
19:00 +18°C° 0.2 mm 3 mps 746 mmHg 89%
20:00 +17°C° 0.2 mm 2 mps 746 mmHg 92%
21:00 +15°C° 0 mm 2 mps 747 mmHg 93%
22:00 +14°C° 0 mm 2 mps 747 mmHg 93%
23:00 +12°C° 0 mm 2 mps 747 mmHg 93%

16 June, Wednesday

Time Temperature Precipitation Wind Pressure Humidity
00:00 +10°C° 0 mm 2 mps 748 mmHg 93%
01:00 +9°C° 0 mm 2 mps 748 mmHg 92%
02:00 +7°C° 0 mm 2 mps 748 mmHg 92%
03:00 +8°C° 0 mm 2 mps 749 mmHg 92%
04:00 +8°C° 0 mm 2 mps 749 mmHg 93%
05:00 +8°C° 0 mm 2 mps 749 mmHg 93%
06:00 +10°C° 0 mm 2 mps 749 mmHg 85%
07:00 +13°C° 0 mm 2 mps 750 mmHg 77%
08:00 +15°C° 0 mm 2 mps 750 mmHg 69%
09:00 +17°C° 0 mm 2 mps 750 mmHg 61%
10:00 +18°C° 0 mm 2 mps 750 mmHg 54%
11:00 +20°C° 0 mm 2 mps 750 mmHg 46%
12:00 +20°C° 0 mm 2 mps 751 mmHg 44%
13:00 +22°C° 0 mm 1 mps 751 mmHg 42%
14:00 +23°C° 0 mm 1 mps 751 mmHg 40%
15:00 +23°C° 0 mm 1 mps 751 mmHg 42%
16:00 +23°C° 0 mm 1 mps 751 mmHg 43%
17:00 +23°C° 0 mm 1 mps 751 mmHg 44%
18:00 +21°C° 0 mm 1 mps 751 mmHg 53%
19:00 +20°C° 0 mm 1 mps 751 mmHg 61%
20:00 +18°C° 0 mm 1 mps 751 mmHg 70%
21:00 +16°C° 0 mm 1 mps 751 mmHg 71%
22:00 +15°C° 0 mm 1 mps 752 mmHg 72%
23:00 +13°C° 0 mm 1 mps 752 mmHg 72%

17 June, Thursday

Time Temperature Precipitation Wind Pressure Humidity
00:00 +13°C° 0 mm 1 mps 752 mmHg 75%
01:00 +13°C° 0 mm 1 mps 753 mmHg 77%
02:00 +12°C° 0 mm 1 mps 753 mmHg 80%
03:00 +12°C° 0 mm 1 mps 753 mmHg 80%
04:00 +13°C° 0 mm 1 mps 753 mmHg 81%
05:00 +13°C° 0 mm 1 mps 753 mmHg 82%
06:00 +15°C° 0 mm 1 mps 754 mmHg 75%
07:00 +18°C° 0 mm 1 mps 754 mmHg 68%
08:00 +21°C° 0 mm 1 mps 754 mmHg 62%
09:00 +22°C° 0 mm 1 mps 754 mmHg 57%
10:00 +23°C° 0 mm 2 mps 754 mmHg 52%
11:00 +24°C° 0 mm 2 mps 755 mmHg 47%
12:00 +25°C° 0 mm 2 mps 754 mmHg 45%
13:00 +25°C° 0 mm 2 mps 754 mmHg 44%
14:00 +26°C° 0 mm 2 mps 754 mmHg 43%
15:00 +25°C° 0 mm 2 mps 754 mmHg 45%
16:00 +25°C° 0 mm 2 mps 754 mmHg 47%
17:00 +25°C° 0 mm 2 mps 754 mmHg 49%
18:00 +24°C° 0 mm 2 mps 754 mmHg 58%
19:00 +21°C° 0 mm 2 mps 754 mmHg 66%
20:00 +19°C° 0 mm 2 mps 754 mmHg 75%
21:00 +18°C° 0 mm 2 mps 754 mmHg 77%
22:00 +17°C° 0 mm 2 mps 754 mmHg 80%
23:00 +15°C° 0 mm 2 mps 754 mmHg 83%
Show more